Regional Weather Roundup
Issued by NWS Cleveland, OH

Home | Current Version | Previous Version | Text Only | Print | Product List | Glossary Off
Versions: 1 2 3 4 5 6 7 8 9 10 11 12 13 14 15 16 17 18 19 20 21 22 23 24 25 26 27 28 29 30 31 32 33 34 35 36 37 38 39 40 41 42 43 44 45 46 47 48 49 50

275
ASUS41 KCLE 260912
RWRCLE
OHIO REGIONAL WEATHER ROUNDUP
NATIONAL WEATHER SERVICE WILMINGTON, OH
500 AM EDT MON SEP 26 2016

NOTE: "FAIR" INDICATES FEW OR NO CLOUDS BELOW 12,000 FEET WITH NO
SIGNIFICANT WEATHER AND/OR OBSTRUCTIONS TO VISIBILITY.

OHZ001>008-015>018-024>027-034-035-043-044-261000-
   NORTHWEST OHIO

CITY           SKY/WX    TMP DP  RH WIND       PRES   REMARKS
DEFIANCE       CLOUDY    68  64  87 S5        29.88F
FINDLAY        MOCLDY    68  55  63 S5        29.90F
TOLEDO EXPRESS MOCLDY    62  61  96 W3        29.89S
TOLEDO EXEC    CLOUDY    66  57  72 S5        29.89F
LIMA           FAIR      69  62  78 W12       29.93R
$$

OHZ009>014-019>023-028>033-038-089-261000-
   NORTHEAST OHIO

CITY           SKY/WX    TMP DP  RH WIND       PRES   REMARKS
CLE-HOPKINS    MOCLDY    63  47  55 S14       29.95F
CLE-LAKEFRONT  FAIR      64  47  53 SE18      29.92F
CUY CO. ARPT   NOT AVBL
LORAIN-ELYRIA  FAIR      62  47  57 S12       29.94F
ASHTABULA      FAIR      54  49  83 SE7       29.99F
AKRON-CANTON   FAIR      59  47  64 S8        29.98F
WOOSTER        FAIR      53  48  83 CALM      29.98F
MANSFIELD      FAIR      64  49  57 S9        29.96F
YOUNGSTOWN     MOCLDY    56  47  71 SE10      30.00F
$$

OHZ042-051>053-060>062-070>072-077>081-261000-
  SOUTHWEST OHIO

CITY           SKY/WX    TMP DP  RH WIND       PRES   REMARKS
CINC-COVINGTON FAIR      66  64  93 S7        29.94F
CINC-LUNKEN    FAIR      64  64 100 CALM      29.95F FOG
HAMILTON       FAIR      64  62  93 CALM      29.95F FOG
DAYTON         FAIR      71  63  75 S12       29.94F
WRIGHT-PAT AFB CLEAR     68  64  87 S5        29.93F
DAYTON GENERAL FAIR      70  62  76 S7        29.94F
WILMINGTON     FAIR      67  63  87 S7        29.96F
$$

OHZ036-037-039>041-045>050-054>059-063>069-073>076-082>088-261000-
  CENTRAL AND SOUTHEAST OHIO

CITY           SKY/WX    TMP DP  RH WIND       PRES   REMARKS
COLUMBUS       FAIR      63  51  65 CALM      29.95F
OSU AIRPORT    FAIR      63  52  67 CALM      29.96F
BOLTON FIELD   FAIR      60  53  76 CALM      29.96F
RICKENBACK AFB FAIR      58  52  79 CALM      29.95F
NEWARK         FAIR      54  53  97 CALM      29.97F
MARION         CLOUDY    63  48  58 S9        29.94F
LANCASTER      FAIR      59  53  80 SE5       29.96F
ZANESVILLE     FAIR      55  50  83 CALM      29.98F
NEW PHILLY     FAIR      55  52  89 SE5       29.99F
$$




USA.gov is the U.S. government's official web portal to all federal, state and local government web resources and services.